www.pogodaiklimat.ru

Погода и климат >> Архив погоды >> Индия >> Jhansi


ПОГОДА в Jhansi

  • Прогноз погоды в Jhansi
  • Монитор погоды в Jhansi
  • Климат города

АРХИВ ПОГОДЫ в Jhansi

Время (UTC), дата Ветер
(напр.,м/с)
 
Видим.   Явления Облачность Т
(С)
Тd
(С)
f
(%)
Тe
(С)
Тes
(С)
Комфортность P
(гПа)
Po
(гПа)
Тmin
(С)
Tmax
(С)
R
(мм)
R24
(мм)
S
(см)
03 9.12 штиль 0 2000 м мгла ясно +16.0 +8.6 61 +16 +18 1018.9 1019.0 +11.0 +27.0
06 9.12 СЗ 1 4000 м ясно +24.0 +7.2 34 +24 +35 комфорт 1018.3 1018.0
09 9.12 СЗ 2 4000 м ясно +26.0 +7.7 31 +26 +32 жарко 1014.9 1015.0
12 9.12 штиль 0 4000 м ясно +23.2 +11.0 46 +25 +25 комфорт 1014.7 1015.0 +26.5
03 10.12 ЮЗ 1 2000 м мгла ясно +14.0 +8.4 69 +14 +17 1019.5 1020.0 +11.0 +26.5
06 10.12 З 1 4000 м ясно +22.6 +8.8 41 +24 +35 комфорт 1018.6 1019.0
09 10.12 З 1 4000 м ясно +22.6 +8.8 41 +24 +31 комфорт 1018.6 1019.0
12 10.12 СВ 1 4000 м ясно +23.4 +11.3 47 +26 +26 жарко 1014.6 1015.0 +27.0
03 11.12 штиль 0 2000 м мгла ясно +13.8 +9.1 73 +13 +16 1018.7 1019.0 +10.8 +27.0
06 11.12 ЮЗ 1 4000 м ясно +24.6 +10.2 40 +26 +36 жарко 1017.0 1017.0
09 11.12 З 1 4000 м ясно +27.6 +5.1 24 +27 +34 жарко 1014.4 1014.0
12 11.12 штиль 0 2000 м мгла ясно +23.6 +11.1 45 +25 +25 комфорт 1014.3 1014.0 +28.5
03 12.12 В 1 2000 м мгла 5/3 1050 м
[Cu hum Ac trans]
+18.0 +11.0 64 +19 +20 1018.6 1019.0 +13.0 +28.5
06 12.12 З 1 4000 м 4/0
[Ac trans Ci fib]
+24.4 +10.8 42 +26 +34 жарко 1017.8 1018.0
09 12.12 З 1 4000 м 4/0
[Ac trans Ci fib]
+27.0 +10.3 35 +28 +33 жарко 1014.8 1015.0
12 12.12 штиль 0 2000 м мгла 3/0
[Ci fib]
+24.0 +13.4 51 +26 +26 жарко 1014.8 1015.0 +27.5
03 13.12 штиль 0 1000 м мгла {туман} ясно +16.0 +12.8 81 +16 +18 1020.8 1021.0 +14.5 +27.5
06 13.12 ЮЗ 2 2000 м мгла {туман} ясно +18.2 +14.4 78 +19 +29 1021.1 1021.0
09 13.12 СЗ 2 2000 м мгла 3/0
[Ci fib]
+21.0 +15.7 72 +25 +31 комфорт 1018.2 1018.0
12 13.12 СЗ 1 2000 м мгла ясно +19.4 +15.7 79 +22 +22 комфорт 1017.4 1017.0 +21.8
03 14.12 С 1 500 м туман ?/? +13.6 +13.2 97 +14 +14 1022.2 1022.0 +12.6 +21.8
06 14.12 С 2 2000 м мгла {туман} ясно +16.8 +12.9 78 +17 +27 1021.8 1022.0
09 14.12 СЗ 2 2000 м мгла {туман} 4/0
[Ac trans Ci fib]
+21.2 +9.7 48 +23 +27 комфорт 1020.6 1021.0
12 14.12 штиль 0 2000 м мгла 4/0
[Ac trans Ci fib]
+19.8 +11.1 57 +21 +21 комфорт 1019.6 1020.0 +21.5
03 15.12 штиль 0 1000 м дымка {туман} 4/0
[Ac trans Ci fib]
+14.0 +10.6 80 +14 +16 1023.2 1023.0 +12.0 +21.5
06 15.12 штиль 0 2000 м мгла {туман} 4/0
[Ac trans Ci fib]
+19.6 +6.5 42 +20 +30 1022.9 1023.0
09 15.12 СЗ 1 4000 м 4/0
[Ac trans Ci fib]
+22.0 +2.0 27 +22 +27 комфорт 1010.1 1010.0
12 15.12 штиль 0 2000 м мгла 3/0
[Ac trans]
+20.0 +9.0 49 +21 +21 комфорт 1019.3 1019.0 +22.5

 

Местоположение метеостанции Jhansi (Uttar Pradesh, Индия): широта 25.45 долгота 78.62 высота над уровнем моря 258 м.

В архиве по умолчанию представлена погода в Jhansi за последнюю неделю. Архивные данные за месяц целиком и за предыдущие месяцы, начиная с января 2011 года, Вы можете получить, выбрав интересующий диапазон дат из раскрывающегося списка и нажав кнопку "Ввод!".

Внимание! Время в таблицах - всемирное. Для получения местного времени необходимо прибавить поправку, которая в Jhansi равна 5.5 ч.

Смотрите также архив погоды в соседних городах и на ближайших метеорологических станциях:

Погода в Tikamgarh (Madhya Pradesh, Индия) (79 км)
Погода в Nowgong (Madhya Pradesh, Индия) (94 км)
Погода в Gwalior (Madhya Pradesh, Индия) (94 км)
Погода в Shivpuri (Madhya Pradesh, Индия) (98 км)
Погода в Khajuraho (Madhya Pradesh, Индия) (141 км)
Погода в Guna (Madhya Pradesh, Индия) (158 км)
Погода в Hamirpur (Uttar Pradesh, Индия) (163 км)
Погода в Banda (Uttar Pradesh, Индия) (176 км)
Погода в Sagar (Madhya Pradesh, Индия) (178 км)
Погода в Sheopur (Madhya Pradesh, Индия) (196 км)

Пояснения к столбцам:

Ветер - указаны скорость ветра в м/с - средняя за 10 мин, порывы в срок и между сроками (в фигурных скобках) и направление, откуда дует ветер: С - северный, СВ - северо-восточный, В - восточный, ЮВ - юго-восточный, Ю - южный, ЮЗ - юго-западный, З - западный, СЗ - северо-западный.
Видимость - горизонтальная дальность видимости в метрах или километрах. При видимости от 1 до 10 км при отсутствии осадков обычно наблюдается дымка, при ухудшении видимости до 1 км и менее - туман. В сухую погоду видимость может ухудшаться дымом, пылью или мглою.
Явления - указаны атмосферные явления, наблюдавшиеся в срок или в последний час перед сроком; фигурными скобками обозначены явления, наблюдавшиеся между сроками (за 1-3 часа до срока); квадратными скобками обозначены град или гололедные отложения с указанием их диаметра в мм.
Облачность - указаны через наклонную черту общая и нижняя облачность в баллах и высота нижней границы облаков в метрах; квадратными скобками обозначены формы облаков: Ci - перистые, Cs - перисто-слоистые, Cc - перисто-кучевые, Ac - высококучевые, As - высокослоистые, Sc - слоисто-кучевые, Ns - слоисто-дождевые, Cu - кучевые, Cb - кучево-дождевые. Подробнее классификацию облаков см. в Атласе облаков (PDF).
T - Температура воздуха - температура, измеренная на высоте 2 м над землей.
Td - Температура точки росы - температура, при понижении до которой содержащийся в воздухе водяной пар достигнет насыщения.
f - Относительная влажность воздуха - влажноcть воздуха, измеренная на высоте 2 м над землей.
Te - Эффективная температура - температура, которую ощущает одетый по сезону человек в тени. Характеристика душности погоды. При расчете учитывается влияние влажности воздуха и скорости ветра на теплоощущения человека.
Tes - Эффективная температура на солнце - температура, которую ощущает человек, с поправкой на солнечный нагрев. Характеристика знойности погоды. Зависит от высоты солнца над горизонтом, облачности и скорости ветра. Ночью, в пасмурную погоду, а также при ветре 12 м/с и более поправка равна нулю.
P - Атмосферное давление - приведенное к уровню моря атмосферное давление.
Po - Атмосферное давление - измеренное на уровне метеостанции атмосферное давление.
Tmin - Минимальная температура - минимум температуры воздуха на высоте 2 м над землей.
Tmax - Максимальная температура - максимум температуры воздуха на высоте 2 м над землей.
R - Количество осадков - Количество выпавших осадков за период времени, мм. При наведении курсора мыши на число - период времени, за который выпало указанное количество осадков.
R24 - Количество осадков - Количество выпавших осадков за 24 часа, мм.
S - Снежный покров - Высота снежного покрова, см. При наведении курсора мыши на число - состояние снежного покрова и степень покрытия местности в баллах.